Regional Weather Roundup
Issued by NWS Green Bay, WI

Home | Current Version | Previous Version | Text Only | Print | Product List | Glossary On
Versions: 1 2 3 4 5 6 7 8 9 10 11 12 13 14 15 16 17 18 19 20 21 22 23 24 25 26 27 28 29 30 31 32 33 34 35 36 37 38 39 40 41 42 43 44 45 46 47 48 49 50
742
ASUS43 KGRB 240000
RWRGRB

NORTH-CENTRAL AND NORTHEAST WISCONSIN REGIONAL WEATHER ROUNDUP
NATIONAL WEATHER SERVICE GREEN BAY WI
700 PM CDT SUN APR 23 2017

WIZ005-009-010>012-018-019-240100-
NORTH CENTRAL WISCONSIN

CITY           SKY/WX    TMP DP  RH WIND       PRES   REMARKS
IRONWOOD       CLOUDY    37  30  75 E10       30.10F
MANITOWISH WTR MOCLDY    39  33  79 E8        30.06F
ARBOR VITAE    NOT AVBL
EAGLE RIVER    NOT AVBL
LAND O LAKES   CLOUDY    41  30  66 NE5       30.09F
RHINELANDER    CLOUDY    46  35  65 NE9       30.04F
PHILLIPS       CLOUDY    45  36  70 NE10G16   30.01F
ANTIGO         NOT AVBL
TOMAHAWK       NOT AVBL
MERRILL        PTCLDY    56  40  54 SE14      30.00S
$$

WIZ013-073-240100-
NORTHEAST WISCONSIN

CITY           SKY/WX    TMP DP  RH WIND       PRES   REMARKS
IRON MOUNTAIN  CLOUDY    40  25  55 NE8       30.10F
MARINETTE      CLOUDY    39  28  64 E13G21    30.14S
$$

WIZ017-030-035>037-045-240100-
CENTRAL WISCONSIN

CITY           SKY/WX    TMP DP  RH WIND       PRES   REMARKS
MEDFORD        NOT AVBL
WAUSAU         PTCLDY    54  41  61 E17       29.99S
MOSINEE        NOT AVBL
MARSHFIELD     PTCLDY    59  43  55 SE15G23   29.97R
WISC RAPIDS    CLEAR     59  45  59 SE10      30.00S
STEVENS POINT  NOT AVBL
WAUPACA        PTCLDY    54  40  60 E12       30.06S
SHAWANO        CLOUDY    47  36  64 E10       30.09S
CLINTONVILLE   MOCLDY    46  34  61 E13       30.08R
WAUTOMA        PTCLDY    55  42  61 E12G21    30.03S
$$

WIZ038-039-048-051-240100-
FOX VALLEY

CITY           SKY/WX    TMP DP  RH WIND       PRES   REMARKS
NWS GREEN BAY  CLOUDY    45  38  76 NE14      30.10S
APPLETON       PTCLDY    48  36  61 E16       30.06R
OSHKOSH        CLOUDY    48  39  71 E13G20    30.06R
FOND DU LAC    CLOUDY    47  35  63 E14       30.07R
$$

WIZ022-050-052-240100-
EAST CENTRAL WISCONSIN

CITY           SKY/WX    TMP DP  RH WIND       PRES   REMARKS
EPHRAIM        NOT AVBL
WASHINGTON ISL FAIR      38  25  59 NE5       30.14F
STURGEON BAY   CLOUDY    39  28  64 NE12      30.13R
MANITOWOC      NOT AVBL
SHEBOYGAN      PTCLDY    39  33  79 NE17      30.10S
$$

LMZ563-521-522-541>543-240100-
LAKESHORE

STATION/POSITION TIME  TEMP    WIND        PRES    VSBY  WAVE
                       AIR SEA DIR/SP/G                  HT/PER
                 (UTC) (F)     (DEG/KT/KT) (MB)    (MI)  (FT/S)
SHEBOYGAN LKSHOR 2300   38      30/ 16/ 17 1019.7R
KEWAUNEE LKSHORE 2330   38      50/ 14/ 18 1019.7R
NORTHPORT PIER   2340   39      60/  7/ 10 1020.7S
N MID LAKE BUOY  2250   37 37   70/  6/  8 1022.0S         1/ 4
CHAMBERS ISLAND  2330   38      20/ 10/ 13 1020.3S
MENOMINEE LKSHOR 2330   39      40/ 19/ 21 1019.7R
$$




USA.gov is the U.S. government's official web portal to all federal, state and local government web resources and services.